This is the latest recevied weather packets stored in our database for station/object WA4TPR. If no packets are shown the sender has not sent any weather packets the latest 10 day(s).
| Time | Temp. | Humidity | Pressure | Rain* | Wind** | Luminosity | Snow |
|---|---|---|---|---|---|---|---|
| 1778110900 | 31.67° C | 46% | 1018.9 hPa | 0 mm | - | 19 W/m² | - |
| 1778110597 | 31.67° C | 45% | 1018.7 hPa | 0 mm | - | 25 W/m² | - |
| 1778110294 | 31.67° C | 45% | 1018.9 hPa | 0 mm | - | 33 W/m² | - |
| 1778109990 | 32.22° C | 45% | 1018.8 hPa | 0 mm | - | 41 W/m² | - |
| 1778109686 | 32.22° C | 44% | 1018.9 hPa | 0 mm | - | 50 W/m² | - |
| 1778109383 | 32.78° C | 44% | 1019 hPa | 0 mm | - | 60 W/m² | - |
| 1778109081 | 32.78° C | 43% | 1018.9 hPa | 0 mm | - | 68 W/m² | - |
| 1778108778 | 33.33° C | 43% | 1019 hPa | 0 mm | - | 80 W/m² | - |
| 1778108475 | 33.33° C | 42% | 1019 hPa | 0 mm | - | 92 W/m² | - |
| 1778108171 | 33.33° C | 42% | 1018.9 hPa | 0 mm | - | 102 W/m² | - |
| 1778107868 | 33.33° C | 42% | 1018.8 hPa | 0 mm | - | 115 W/m² | - |
| 1778107565 | 33.33° C | 42% | 1018.8 hPa | 0 mm | - | 130 W/m² | - |
| 1778107261 | 33.33° C | 41% | 1019 hPa | 0 mm | - | 146 W/m² | - |
| 1778106957 | 33.33° C | 42% | 1018.8 hPa | 0 mm | - | 167 W/m² | - |
| 1778106654 | 33.89° C | 41% | 1018.8 hPa | 0 mm | - | 175 W/m² | - |
| 1778106351 | 33.89° C | 40% | 1018.7 hPa | 0 mm | - | 202 W/m² | - |
| 1778106047 | 33.89° C | 41% | 1018.7 hPa | 0 mm | - | 215 W/m² | - |
| 1778105745 | 34.44° C | 40% | 1018.9 hPa | 0 mm | - | 234 W/m² | - |
| 1778105443 | 33.89° C | 40% | 1018.8 hPa | 0 mm | - | 258 W/m² | - |
| 1778105138 | 33.89° C | 42% | 1018.8 hPa | 0 mm | - | 265 W/m² | - |
| 1778104834 | 32.78° C | 41% | 1018.8 hPa | 0 mm | - | 280 W/m² | - |
| 1778104531 | 32.78° C | 42% | 1018.6 hPa | 0 mm | - | 299 W/m² | - |
| 1778104227 | 32.78° C | 43% | 1019 hPa | 0 mm | - | 316 W/m² | - |
| 1778103924 | 32.78° C | 42% | 1018.9 hPa | 0 mm | - | 340 W/m² | - |
| 1778103621 | 33.89° C | 41% | 1018.9 hPa | 0 mm | - | 347 W/m² | - |
* Rain latest hour (hover to see other rain measurements)
** Current wind speed in m/s (hover to see current wind gust speed)